| time (UTC) | temp F | wind direction | speed MPH | gust MPH | rain 1hr in | rain 24hr in | rain mn in | humidity % | barometer mb |
| 20260507210003 | 39 | 102 | 0.0 | 2.0 | 0.00 | 0.00 | 0.00 | 64 | 1019.4 |
| 20260507205503 | 39 | 89 | 1.0 | 3.0 | 0.00 | 0.00 | 0.00 | 63 | 1019.5 |
| 20260507205003 | 39 | 60 | 1.0 | 3.0 | 0.00 | 0.00 | 0.00 | 61 | 1019.4 |
| 20260507204503 | 40 | 61 | 0.0 | 3.0 | 0.00 | 0.00 | 0.00 | 58 | 1019.4 |
| 20260507204003 | 40 | 203 | 0.0 | 2.0 | 0.00 | 0.00 | 0.00 | 58 | 1019.4 |
| 20260507203503 | 40 | 234 | 0.0 | 2.0 | 0.00 | 0.00 | 0.00 | 58 | 1019.2 |
| 20260507203003 | 40 | 231 | 1.0 | 2.0 | 0.00 | 0.00 | 0.00 | 59 | 1019.1 |
| 20260507202713 | 41 | 221 | 0.0 | 2.0 | 0.00 | 0.00 | 0.00 | 59 | 1019.1 |
| 20260507202003 | 41 | 216 | 1.0 | 3.0 | 0.00 | 0.00 | 0.00 | 57 | 1019.0 |
| 20260507201503 | 42 | 211 | 1.0 | 3.0 | 0.00 | 0.00 | 0.00 | 56 | 1019.0 |
| 20260507201003 | 43 | 197 | 1.0 | 2.0 | 0.00 | 0.00 | 0.00 | 54 | 1019.1 |
| 20260507200713 | 43 | 189 | 0.0 | 2.0 | 0.00 | 0.00 | 0.00 | 52 | 1019.0 |
| 20260507200003 | 45 | 191 | 0.0 | 1.0 | 0.00 | 0.00 | 0.00 | 48 | 1018.9 |
| 20260507195713 | 45 | 110 | 0.0 | 1.0 | 0.00 | 0.00 | 0.00 | 46 | 1018.7 |
| 20260507195003 | 46 | 51 | 0.0 | 2.0 | 0.00 | 0.00 | 0.00 | 44 | 1018.6 |
| 20260507194503 | 46 | 19 | 0.0 | 2.0 | 0.00 | 0.00 | 0.00 | 42 | 1018.5 |
| 20260507194003 | 47 | 56 | 0.0 | 2.0 | 0.00 | 0.00 | 0.00 | 42 | 1018.5 |
| 20260507193503 | 48 | 49 | 1.0 | 2.0 | 0.00 | 0.00 | 0.00 | 39 | 1018.5 |
| 20260507193003 | 49 | 30 | 1.0 | 3.0 | 0.00 | 0.00 | 0.00 | 38 | 1018.4 |
| 20260507192503 | 49 | 16 | 2.0 | 3.0 | 0.00 | 0.00 | 0.00 | 36 | 1018.3 |
| 20260507192003 | 50 | 4 | 2.0 | 4.0 | 0.00 | 0.00 | 0.00 | 35 | 1018.2 |
| 20260507191503 | 50 | 350 | 2.0 | 4.0 | 0.00 | 0.00 | 0.00 | 34 | 1018.2 |
| 20260507191003 | 51 | 355 | 3.0 | 6.0 | 0.00 | 0.00 | 0.00 | 33 | 1018.2 |
| 20260507190713 | 51 | 358 | 3.0 | 6.0 | 0.00 | 0.00 | 0.00 | 33 | 1018.2 |
| 20260507190004 | 51 | 6 | 3.0 | 6.0 | 0.00 | 0.00 | 0.00 | 33 | 1018.0 |
| 20260507185503 | 52 | 14 | 3.0 | 7.0 | 0.00 | 0.00 | 0.00 | 32 | 1018.0 |
| 20260507185003 | 52 | 21 | 4.0 | 7.0 | 0.00 | 0.00 | 0.00 | 32 | 1017.9 |
| 20260507184503 | 53 | 21 | 3.0 | 6.0 | 0.00 | 0.00 | 0.00 | 31 | 1017.9 |
| 20260507184003 | 53 | 15 | 2.0 | 6.0 | 0.00 | 0.00 | 0.00 | 31 | 1017.6 |
| 20260507183503 | 53 | 11 | 2.0 | 4.0 | 0.00 | 0.00 | 0.00 | 31 | 1017.6 |
| 20260507183003 | 54 | 13 | 3.0 | 6.0 | 0.00 | 0.00 | 0.00 | 30 | 1017.6 |
| 20260507182712 | 54 | 14 | 3.0 | 6.0 | 0.00 | 0.00 | 0.00 | 30 | 1017.5 |
| 20260507182003 | 54 | 350 | 4.0 | 6.0 | 0.00 | 0.00 | 0.00 | 29 | 1017.6 |
| 20260507181714 | 54 | 347 | 4.0 | 7.0 | 0.00 | 0.00 | 0.00 | 28 | 1017.6 |
| 20260507181213 | 55 | 352 | 4.0 | 8.0 | 0.00 | 0.00 | 0.00 | 28 | 1017.4 |
| 20260507180503 | 55 | 349 | 4.0 | 8.0 | 0.00 | 0.00 | 0.00 | 28 | 1017.6 |
| 20260507180213 | 55 | 351 | 3.0 | 7.0 | 0.00 | 0.00 | 0.00 | 28 | 1017.3 |
| 20260507175503 | 55 | 343 | 3.0 | 6.0 | 0.00 | 0.00 | 0.00 | 28 | 1017.4 |
| 20260507175003 | 55 | 317 | 3.0 | 6.0 | 0.00 | 0.00 | 0.00 | 28 | 1017.4 |
| 20260507174503 | 56 | 290 | 3.0 | 6.0 | 0.00 | 0.00 | 0.00 | 27 | 1017.3 |
| 20260507174213 | 56 | 301 | 3.0 | 6.0 | 0.00 | 0.00 | 0.00 | 27 | 1017.3 |
| 20260507173503 | 56 | 301 | 3.0 | 7.0 | 0.00 | 0.00 | 0.00 | 27 | 1017.1 |
| 20260507173003 | 56 | 300 | 4.0 | 7.0 | 0.00 | 0.00 | 0.00 | 26 | 1017.2 |
| 20260507172504 | 56 | 292 | 4.0 | 7.0 | 0.00 | 0.00 | 0.00 | 26 | 1017.1 |
| 20260507172003 | 57 | 280 | 3.0 | 6.0 | 0.00 | 0.00 | 0.00 | 26 | 1017.2 |
| 20260507171503 | 57 | 293 | 2.0 | 5.0 | 0.00 | 0.00 | 0.00 | 26 | 1016.9 |
| 20260507171003 | 57 | 305 | 2.0 | 6.0 | 0.00 | 0.00 | 0.00 | 25 | 1016.8 |
| 20260507170503 | 57 | 292 | 2.0 | 6.0 | 0.00 | 0.00 | 0.00 | 24 | 1016.9 |
| 20260507170003 | 57 | 284 | 2.0 | 5.0 | 0.00 | 0.00 | 0.00 | 25 | 1016.8 |
| 20260507165503 | 57 | 289 | 2.0 | 4.0 | 0.00 | 0.00 | 0.00 | 25 | 1016.8 |
| 20260507164503 | 57 | 269 | 2.0 | 5.0 | 0.00 | 0.00 | 0.00 | 25 | 1016.8 |
| 20260507164213 | 57 | 297 | 2.0 | 5.0 | 0.00 | 0.00 | 0.00 | 25 | 1016.7 |
| 20260507163503 | 57 | 310 | 2.0 | 6.0 | 0.00 | 0.00 | 0.00 | 25 | 1016.7 |
| 20260507163003 | 57 | 301 | 3.0 | 6.0 | 0.00 | 0.00 | 0.00 | 25 | 1016.8 |
| 20260507162713 | 57 | 289 | 3.0 | 7.0 | 0.00 | 0.00 | 0.00 | 24 | 1016.8 |
| 20260507162003 | 57 | 276 | 4.0 | 8.0 | 0.00 | 0.00 | 0.00 | 25 | 1016.7 |
| 20260507161503 | 58 | 273 | 3.0 | 7.0 | 0.00 | 0.00 | 0.00 | 25 | 1016.7 |
| 20260507161003 | 58 | 279 | 3.0 | 11.0 | 0.00 | 0.00 | 0.00 | 25 | 1016.6 |
| 20260507160503 | 58 | 283 | 4.0 | 11.0 | 0.00 | 0.00 | 0.00 | 24 | 1016.6 |
| 20260507160004 | 58 | 283 | 3.0 | 9.0 | 0.00 | 0.00 | 0.00 | 25 | 1016.6 |
| 20260507155503 | 58 | 297 | 2.0 | 9.0 | 0.00 | 0.00 | 0.00 | 25 | 1016.6 |
| 20260507155003 | 58 | 229 | 2.0 | 5.0 | 0.00 | 0.00 | 0.00 | 25 | 1016.7 |
| 20260507154503 | 58 | 94 | 2.0 | 7.0 | 0.00 | 0.00 | 0.00 | 24 | 1016.4 |
| 20260507154003 | 57 | 327 | 3.0 | 7.0 | 0.00 | 0.00 | 0.00 | 25 | 1016.5 |
| 20260507153504 | 58 | 309 | 2.0 | 6.0 | 0.00 | 0.00 | 0.00 | 24 | 1016.7 |
| 20260507153003 | 57 | 320 | 3.0 | 7.0 | 0.00 | 0.00 | 0.00 | 25 | 1016.6 |
| 20260507152503 | 57 | 297 | 4.0 | 11.0 | 0.00 | 0.00 | 0.00 | 25 | 1016.6 |
| 20260507152003 | 58 | 269 | 4.0 | 11.0 | 0.00 | 0.00 | 0.00 | 25 | 1016.4 |
| 20260507151504 | 57 | 211 | 4.0 | 7.0 | 0.00 | 0.00 | 0.00 | 25 | 1016.4 |
| 20260507151003 | 57 | 248 | 4.0 | 9.0 | 0.00 | 0.00 | 0.00 | 24 | 1016.4 |
| 20260507150503 | 57 | 269 | 3.0 | 9.0 | 0.00 | 0.00 | 0.00 | 24 | 1016.4 |
| 20260507150214 | 58 | 241 | 3.0 | 5.0 | 0.00 | 0.00 | 0.00 | 24 | 1016.4 |
| 20260507145503 | 58 | 231 | 3.0 | 6.0 | 0.00 | 0.00 | 0.00 | 25 | 1016.4 |
| 20260507145003 | 57 | 260 | 4.0 | 6.0 | 0.00 | 0.00 | 0.00 | 24 | 1016.2 |
| 20260507144504 | 58 | 257 | 4.0 | 10.0 | 0.00 | 0.00 | 0.00 | 24 | 1016.3 |
| 20260507144003 | 58 | 263 | 4.0 | 10.0 | 0.00 | 0.00 | 0.00 | 25 | 1016.4 |
| 20260507143503 | 58 | 257 | 4.0 | 9.0 | 0.00 | 0.00 | 0.00 | 25 | 1016.2 |
| 20260507143003 | 58 | 238 | 2.0 | 6.0 | 0.00 | 0.00 | 0.00 | 23 | 1016.3 |
| 20260507142713 | 59 | 225 | 3.0 | 6.0 | 0.00 | 0.00 | 0.00 | 25 | 1016.3 |
| 20260507142003 | 58 | 268 | 3.0 | 6.0 | 0.00 | 0.00 | 0.00 | 25 | 1016.2 |
| 20260507141503 | 58 | 316 | 2.0 | 6.0 | 0.00 | 0.00 | 0.00 | 24 | 1016.3 |
| 20260507141003 | 58 | 254 | 2.0 | 6.0 | 0.00 | 0.00 | 0.00 | 25 | 1016.3 |
| 20260507140503 | 58 | 270 | 3.0 | 9.0 | 0.00 | 0.00 | 0.00 | 24 | 1016.5 |
| 20260507140003 | 57 | 309 | 4.0 | 9.0 | 0.00 | 0.00 | 0.00 | 25 | 1016.4 |
| 20260507135712 | 57 | 319 | 5.0 | 9.0 | 0.00 | 0.00 | 0.00 | 25 | 1016.4 |
| 20260507135003 | 57 | 301 | 4.0 | 9.0 | 0.00 | 0.00 | 0.00 | 26 | 1016.5 |
| 20260507134503 | 57 | 294 | 4.0 | 9.0 | 0.00 | 0.00 | 0.00 | 23 | 1016.3 |
| 20260507134003 | 57 | 276 | 3.0 | 8.0 | 0.00 | 0.00 | 0.00 | 23 | 1016.2 |
| 20260507133503 | 56 | 257 | 3.0 | 7.0 | 0.00 | 0.00 | 0.00 | 23 | 1016.4 |
| 20260507133003 | 56 | 280 | 3.0 | 8.0 | 0.00 | 0.00 | 0.00 | 24 | 1016.3 |
| 20260507132503 | 57 | 281 | 4.0 | 9.0 | 0.00 | 0.00 | 0.00 | 23 | 1016.4 |
| 20260507132003 | 57 | 262 | 4.0 | 9.0 | 0.00 | 0.00 | 0.00 | 23 | 1016.3 |
| 20260507131503 | 57 | 232 | 3.0 | 7.0 | 0.00 | 0.00 | 0.00 | 23 | 1016.3 |
| 20260507131004 | 59 | 198 | 3.0 | 9.0 | 0.00 | 0.00 | 0.00 | 22 | 1016.1 |
| 20260507130503 | 58 | 199 | 3.0 | 9.0 | 0.00 | 0.00 | 0.00 | 23 | 1016.4 |
| 20260507130003 | 58 | 256 | 4.0 | 8.0 | 0.00 | 0.00 | 0.00 | 24 | 1016.2 |
| 20260507125714 | 56 | 270 | 3.0 | 8.0 | 0.00 | 0.00 | 0.00 | 25 | 1016.2 |
| 20260507125003 | 56 | 287 | 4.0 | 12.0 | 0.00 | 0.00 | 0.00 | 24 | 1016.2 |
| 20260507124503 | 56 | 291 | 3.0 | 12.0 | 0.00 | 0.00 | 0.00 | 25 | 1016.1 |
| 20260507124003 | 56 | 293 | 3.0 | 8.0 | 0.00 | 0.00 | 0.00 | 25 | 1016.0 |
| 20260507123714 | 56 | 295 | 3.0 | 8.0 | 0.00 | 0.00 | 0.00 | 25 | 1016.1 |
| 20260507123003 | 56 | 263 | 5.0 | 13.0 | 0.00 | 0.00 | 0.00 | 24 | 1016.3 |
| 20260507122503 | 56 | 263 | 5.0 | 13.0 | 0.00 | 0.00 | 0.00 | 24 | 1016.1 |
| 20260507122004 | 57 | 228 | 3.0 | 6.0 | 0.00 | 0.00 | 0.00 | 22 | 1016.0 |
| 20260507121714 | 57 | 264 | 3.0 | 9.0 | 0.00 | 0.00 | 0.00 | 24 | 1016.2 |
| 20260507121213 | 56 | 300 | 3.0 | 10.0 | 0.00 | 0.00 | 0.00 | 23 | 1016.2 |
| 20260507120503 | 55 | 318 | 4.0 | 10.0 | 0.00 | 0.00 | 0.00 | 23 | 1016.1 |
| 20260507120004 | 56 | 259 | 3.0 | 11.0 | 0.00 | 0.00 | 0.00 | 23 | 1016.1 |
| 20260507115503 | 56 | 214 | 4.0 | 11.0 | 0.00 | 0.00 | 0.00 | 22 | 1016.3 |
| 20260507115213 | 57 | 218 | 4.0 | 11.0 | 0.00 | 0.00 | 0.00 | 21 | 1016.3 |
| 20260507114503 | 56 | 247 | 3.0 | 8.0 | 0.00 | 0.00 | 0.00 | 21 | 1016.1 |
| 20260507114003 | 56 | 169 | 3.0 | 6.0 | 0.00 | 0.00 | 0.00 | 21 | 1016.1 |
| 20260507113503 | 56 | 211 | 3.0 | 6.0 | 0.00 | 0.00 | 0.00 | 21 | 1016.0 |
| 20260507113213 | 56 | 254 | 3.0 | 6.0 | 0.00 | 0.00 | 0.00 | 20 | 1016.0 |
| 20260507112503 | 54 | 295 | 4.0 | 9.0 | 0.00 | 0.00 | 0.00 | 21 | 1016.3 |
| 20260507112003 | 55 | 322 | 4.0 | 9.0 | 0.00 | 0.00 | 0.00 | 21 | 1016.4 |
| 20260507111714 | 55 | 310 | 4.0 | 7.0 | 0.00 | 0.00 | 0.00 | 24 | 1016.0 |
| 20260507111003 | 55 | 251 | 3.0 | 7.0 | 0.00 | 0.00 | 0.00 | 19 | 1016.3 |
| 20260507110503 | 55 | 290 | 2.0 | 7.0 | 0.00 | 0.00 | 0.00 | 23 | 1016.1 |
| 20260507110003 | 55 | 338 | 3.0 | 7.0 | 0.00 | 0.00 | 0.00 | 23 | 1016.1 |
| 20260507105713 | 55 | 358 | 2.0 | 8.0 | 0.00 | 0.00 | 0.00 | 25 | 1016.1 |
| 20260507105212 | 54 | 344 | 3.0 | 11.0 | 0.00 | 0.00 | 0.00 | 24 | 1016.1 |
| 20260507104503 | 54 | 2 | 4.0 | 11.0 | 0.00 | 0.00 | 0.00 | 25 | 1016.1 |
| 20260507104003 | 54 | 338 | 3.0 | 9.0 | 0.00 | 0.00 | 0.00 | 24 | 1016.1 |
| 20260507103503 | 54 | 320 | 2.0 | 9.0 | 0.00 | 0.00 | 0.00 | 26 | 1016.1 |
| 20260507103212 | 54 | 324 | 2.0 | 11.0 | 0.00 | 0.00 | 0.00 | 26 | 1015.9 |
| 20260507102713 | 53 | 341 | 4.0 | 11.0 | 0.00 | 0.00 | 0.00 | 27 | 1016.1 |
| 20260507102003 | 53 | 312 | 4.0 | 11.0 | 0.00 | 0.00 | 0.00 | 24 | 1016.1 |
| 20260507101713 | 53 | 318 | 3.0 | 8.0 | 0.00 | 0.00 | 0.00 | 25 | 1016.0 |
| 20260507101003 | 54 | 284 | 2.0 | 8.0 | 0.00 | 0.00 | 0.00 | 27 | 1016.0 |
| 20260507100503 | 53 | 264 | 3.0 | 8.0 | 0.00 | 0.00 | 0.00 | 30 | 1015.8 |
| 20260507100004 | 53 | 274 | 3.0 | 8.0 | 0.00 | 0.00 | 0.00 | 27 | 1015.9 |
| 20260507095503 | 53 | 286 | 3.0 | 9.0 | 0.00 | 0.00 | 0.00 | 30 | 1015.9 |
| 20260507095003 | 53 | 324 | 4.0 | 9.0 | 0.00 | 0.00 | 0.00 | 31 | 1015.8 |
| 20260507094503 | 52 | 317 | 4.0 | 9.0 | 0.00 | 0.00 | 0.00 | 28 | 1015.9 |
| 20260507094003 | 53 | 268 | 3.0 | 6.0 | 0.00 | 0.00 | 0.00 | 33 | 1015.7 |
| 20260507093504 | 52 | 284 | 3.0 | 7.0 | 0.00 | 0.00 | 0.00 | 34 | 1015.7 |
| 20260507093214 | 52 | 290 | 2.0 | 7.0 | 0.00 | 0.00 | 0.00 | 34 | 1015.8 |
| 20260507092503 | 51 | 266 | 3.0 | 7.0 | 0.00 | 0.00 | 0.00 | 35 | 1015.7 |
| 20260507092003 | 52 | 263 | 3.0 | 8.0 | 0.00 | 0.00 | 0.00 | 35 | 1015.8 |
| 20260507091713 | 50 | 261 | 3.0 | 8.0 | 0.00 | 0.00 | 0.00 | 38 | 1015.7 |
| 20260507091003 | 50 | 264 | 3.0 | 7.0 | 0.00 | 0.00 | 0.00 | 37 | 1015.9 |
| 20260507090503 | 50 | 258 | 3.0 | 8.0 | 0.00 | 0.00 | 0.00 | 37 | 1016.0 |
| 20260507090004 | 51 | 288 | 3.0 | 8.0 | 0.00 | 0.00 | 0.00 | 37 | 1015.8 |
| 20260507085503 | 50 | 308 | 3.0 | 7.0 | 0.00 | 0.00 | 0.00 | 37 | 1015.7 |
| 20260507085003 | 49 | 280 | 4.0 | 7.0 | 0.00 | 0.00 | 0.00 | 35 | 1016.0 |
| 20260507084503 | 50 | 300 | 4.0 | 9.0 | 0.00 | 0.00 | 0.00 | 37 | 1016.0 |
| 20260507084003 | 49 | 312 | 4.0 | 9.0 | 0.00 | 0.00 | 0.00 | 39 | 1015.8 |
| 20260507083503 | 48 | 314 | 4.0 | 9.0 | 0.00 | 0.00 | 0.00 | 37 | 1016.0 |
| 20260507083003 | 49 | 348 | 5.0 | 10.0 | 0.00 | 0.00 | 0.00 | 37 | 1015.8 |
| 20260507082503 | 49 | 339 | 5.0 | 10.0 | 0.00 | 0.00 | 0.00 | 35 | 1015.7 |
| 20260507082004 | 48 | 297 | 3.0 | 10.0 | 0.00 | 0.00 | 0.00 | 37 | 1015.7 |
| 20260507081712 | 48 | 298 | 4.0 | 10.0 | 0.00 | 0.00 | 0.00 | 39 | 1015.8 |
| 20260507081213 | 48 | 331 | 3.0 | 8.0 | 0.00 | 0.00 | 0.00 | 41 | 1015.3 |
| 20260507080503 | 48 | 7 | 3.0 | 8.0 | 0.00 | 0.00 | 0.00 | 40 | 1015.5 |
| 20260507080213 | 48 | 349 | 3.0 | 8.0 | 0.00 | 0.00 | 0.00 | 39 | 1015.3 |
| 20260507075503 | 48 | 13 | 3.0 | 8.0 | 0.00 | 0.00 | 0.00 | 39 | 1015.5 |
| 20260507075004 | 48 | 346 | 3.0 | 6.0 | 0.00 | 0.00 | 0.00 | 40 | 1015.6 |
| 20260507074503 | 47 | 333 | 3.0 | 6.0 | 0.00 | 0.00 | 0.00 | 44 | 1015.2 |
| 20260507074003 | 47 | 2 | 3.0 | 6.0 | 0.00 | 0.00 | 0.00 | 45 | 1015.3 |
| 20260507073714 | 47 | 4 | 3.0 | 6.0 | 0.00 | 0.00 | 0.00 | 44 | 1015.1 |
| 20260507073003 | 47 | 270 | 2.0 | 4.0 | 0.00 | 0.00 | 0.00 | 47 | 1015.2 |
| 20260507072503 | 47 | 214 | 2.0 | 5.0 | 0.00 | 0.00 | 0.00 | 48 | 1015.2 |
| 20260507072003 | 47 | 196 | 2.0 | 5.0 | 0.00 | 0.00 | 0.00 | 50 | 1015.2 |
| 20260507071503 | 47 | 203 | 2.0 | 5.0 | 0.00 | 0.00 | 0.00 | 50 | 1015.5 |
| 20260507071213 | 46 | 192 | 2.0 | 6.0 | 0.00 | 0.00 | 0.00 | 53 | 1015.5 |
| 20260507070503 | 45 | 138 | 3.0 | 8.0 | 0.00 | 0.00 | 0.00 | 56 | 1015.2 |
| 20260507070006 | 45 | 203 | 2.0 | 8.0 | 0.00 | 0.00 | 0.00 | 54 | 1015.2 |
| 20260507065503 | 44 | 225 | 2.0 | 5.0 | 0.00 | 0.00 | 0.00 | 57 | 1015.2 |
| 20260507065003 | 44 | 167 | 3.0 | 6.0 | 0.00 | 0.00 | 0.00 | 58 | 1015.2 |
| 20260507064503 | 43 | 161 | 3.0 | 6.0 | 0.00 | 0.00 | 0.00 | 59 | 1015.3 |
| 20260507064004 | 44 | 158 | 3.0 | 6.0 | 0.00 | 0.00 | 0.00 | 61 | 1015.0 |
| 20260507063503 | 43 | 143 | 3.0 | 6.0 | 0.00 | 0.00 | 0.00 | 62 | 1015.1 |
| 20260507063003 | 42 | 139 | 3.0 | 6.0 | 0.00 | 0.00 | 0.00 | 64 | 1015.0 |
| 20260507062503 | 42 | 131 | 3.0 | 6.0 | 0.00 | 0.00 | 0.00 | 65 | 1015.0 |
| 20260507062003 | 42 | 139 | 3.0 | 6.0 | 0.00 | 0.00 | 0.00 | 67 | 1015.2 |
| 20260507061503 | 42 | 155 | 3.0 | 5.0 | 0.00 | 0.00 | 0.00 | 69 | 1015.1 |
| 20260507061003 | 42 | 162 | 3.0 | 6.0 | 0.00 | 0.00 | 0.00 | 69 | 1015.0 |
| 20260507060503 | 41 | 165 | 2.0 | 6.0 | 0.00 | 0.00 | 0.00 | 69 | 1014.9 |
| 20260507060003 | 42 | 178 | 1.0 | 3.0 | 0.00 | 0.00 | 0.00 | 70 | 1014.9 |
| 20260507055503 | 41 | 184 | 1.0 | 3.0 | 0.00 | 0.00 | 0.00 | 71 | 1015.2 |
| 20260507055003 | 40 | 169 | 1.0 | 3.0 | 0.00 | 0.00 | 0.00 | 72 | 1014.9 |
| 20260507054504 | 40 | 136 | 1.0 | 3.0 | 0.00 | 0.00 | 0.00 | 75 | 1015.0 |
| 20260507054212 | 40 | 124 | 1.0 | 3.0 | 0.00 | 0.00 | 0.00 | 76 | 1014.6 |
| 20260507053713 | 38 | 141 | 2.0 | 4.0 | 0.00 | 0.00 | 0.00 | 78 | 1014.8 |
| 20260507053004 | 38 | 138 | 2.0 | 4.0 | 0.00 | 0.00 | 0.00 | 79 | 1014.8 |
| 20260507052503 | 38 | 139 | 2.0 | 4.0 | 0.00 | 0.00 | 0.00 | 80 | 1014.8 |
| 20260507052212 | 38 | 145 | 1.0 | 3.0 | 0.00 | 0.00 | 0.00 | 81 | 1014.7 |
| 20260507051503 | 36 | 110 | 0.0 | 2.0 | 0.00 | 0.00 | 0.00 | 83 | 1014.7 |
| 20260507051003 | 35 | 87 | 1.0 | 2.0 | 0.00 | 0.00 | 0.00 | 80 | 1014.7 |
| 20260507050713 | 35 | 85 | 1.0 | 2.0 | 0.00 | 0.00 | 0.00 | 79 | 1014.8 |
| 20260507050214 | 35 | 79 | 1.0 | 2.0 | 0.00 | 0.00 | 0.00 | 77 | 1014.7 |
| 20260507045713 | 34 | 48 | 1.0 | 2.0 | 0.00 | 0.00 | 0.00 | 80 | 1014.8 |
| 20260507045003 | 33 | 45 | 1.0 | 2.0 | 0.00 | 0.00 | 0.00 | 81 | 1014.7 |
| 20260507044503 | 33 | 57 | 0.0 | 2.0 | 0.00 | 0.00 | 0.00 | 81 | 1014.5 |
| 20260507044004 | 31 | 56 | 0.0 | 2.0 | 0.00 | 0.00 | 0.00 | 84 | 1014.5 |
| 20260507043503 | 32 | 55 | 1.0 | 2.0 | 0.00 | 0.00 | 0.00 | 81 | 1014.5 |
| 20260507043214 | 31 | 54 | 1.0 | 2.0 | 0.00 | 0.00 | 0.00 | 83 | 1014.4 |
| 20260507042503 | 32 | 33 | 1.0 | 3.0 | 0.00 | 0.00 | 0.00 | 81 | 1014.5 |
| 20260507042214 | 32 | 30 | 1.0 | 3.0 | 0.00 | 0.00 | 0.00 | 82 | 1014.7 |
| 20260507041503 | 31 | 32 | 1.0 | 3.0 | 0.00 | 0.00 | 0.00 | 83 | 1014.5 |
| 20260507041003 | 32 | 47 | 1.0 | 3.0 | 0.00 | 0.00 | 0.00 | 81 | 1014.5 |
| 20260507040503 | 32 | 42 | 0.0 | 2.0 | 0.00 | 0.00 | 0.00 | 81 | 1014.6 |
| 20260507040003 | 31 | 19 | 0.0 | 2.0 | 0.00 | 0.00 | 0.00 | 82 | 1014.5 |
| 20260507035713 | 31 | 36 | 0.0 | 2.0 | 0.00 | 0.00 | 0.00 | 84 | 1014.5 |
| 20260507035003 | 30 | 42 | 1.0 | 2.0 | 0.00 | 0.00 | 0.00 | 85 | 1014.4 |
| 20260507034503 | 30 | 37 | 1.0 | 2.0 | 0.00 | 0.00 | 0.00 | 83 | 1014.3 |
| 20260507034003 | 29 | 48 | 0.0 | 2.0 | 0.00 | 0.00 | 0.00 | 88 | 1014.3 |
| 20260507033503 | 28 | 55 | 1.0 | 2.0 | 0.00 | 0.00 | 0.00 | 92 | 1014.3 |
| 20260507033003 | 29 | 50 | 1.0 | 2.0 | 0.00 | 0.00 | 0.00 | 86 | 1014.2 |
| 20260507032503 | 29 | 53 | 0.0 | 2.0 | 0.00 | 0.00 | 0.00 | 89 | 1014.3 |
| 20260507032003 | 29 | 42 | 1.0 | 2.0 | 0.00 | 0.00 | 0.00 | 86 | 1014.2 |
| 20260507031503 | 29 | 37 | 1.0 | 2.0 | 0.00 | 0.00 | 0.00 | 87 | 1014.1 |
| 20260507031003 | 29 | 39 | 1.0 | 2.0 | 0.00 | 0.00 | 0.00 | 87 | 1014.1 |
| 20260507030503 | 29 | 34 | 1.0 | 3.0 | 0.00 | 0.00 | 0.00 | 86 | 1014.1 |
| 20260507030003 | 29 | 30 | 2.0 | 3.0 | 0.00 | 0.00 | 0.00 | 85 | 1014.1 |
| 20260507025712 | 30 | 29 | 1.0 | 3.0 | 0.00 | 0.00 | 0.00 | 85 | 1014.0 |
| 20260507025003 | 29 | 45 | 1.0 | 3.0 | 0.00 | 0.00 | 0.00 | 88 | 1013.9 |
| 20260507024503 | 29 | 41 | 1.0 | 3.0 | 0.00 | 0.00 | 0.00 | 86 | 1014.1 |
| 20260507024003 | 29 | 32 | 1.0 | 3.0 | 0.00 | 0.00 | 0.00 | 87 | 1013.8 |
| 20260507023503 | 29 | 37 | 1.0 | 2.0 | 0.00 | 0.00 | 0.00 | 87 | 1014.0 |
| 20260507023003 | 30 | 37 | 1.0 | 2.0 | 0.00 | 0.00 | 0.00 | 87 | 1013.9 |
| 20260507022503 | 30 | 32 | 1.0 | 2.0 | 0.00 | 0.00 | 0.00 | 86 | 1014.0 |
| 20260507022003 | 30 | 39 | 1.0 | 2.0 | 0.00 | 0.00 | 0.00 | 85 | 1013.8 |
| 20260507021503 | 30 | 35 | 0.0 | 2.0 | 0.00 | 0.00 | 0.00 | 87 | 1013.9 |
| 20260507021003 | 30 | 25 | 1.0 | 2.0 | 0.00 | 0.00 | 0.00 | 86 | 1014.0 |
| 20260507020503 | 30 | 42 | 1.0 | 2.0 | 0.00 | 0.00 | 0.00 | 86 | 1013.7 |
| 20260507020003 | 29 | 51 | 1.0 | 2.0 | 0.00 | 0.00 | 0.00 | 87 | 1013.8 |
| 20260507015503 | 30 | 34 | 1.0 | 3.0 | 0.00 | 0.00 | 0.00 | 85 | 1013.9 |
| 20260507015003 | 31 | 26 | 2.0 | 3.0 | 0.00 | 0.00 | 0.00 | 84 | 1013.9 |
| 20260507014503 | 31 | 26 | 1.0 | 2.0 | 0.00 | 0.00 | 0.00 | 86 | 1013.6 |
| 20260507014003 | 31 | 30 | 2.0 | 2.0 | 0.00 | 0.00 | 0.00 | 85 | 1013.6 |
| 20260507013503 | 31 | 26 | 1.0 | 2.0 | 0.00 | 0.00 | 0.00 | 84 | 1013.6 |
| 20260507013004 | 31 | 46 | 0.0 | 2.0 | 0.00 | 0.00 | 0.00 | 83 | 1013.6 |
| 20260507012503 | 31 | 150 | 0.0 | 1.0 | 0.00 | 0.00 | 0.00 | 85 | 1013.7 |
| 20260507012003 | 30 | 62 | 0.0 | 2.0 | 0.00 | 0.00 | 0.00 | 87 | 1013.5 |
| 20260507011503 | 31 | 46 | 1.0 | 2.0 | 0.00 | 0.00 | 0.00 | 86 | 1013.4 |
| 20260507011003 | 31 | 35 | 1.0 | 2.0 | 0.00 | 0.00 | 0.00 | 84 | 1013.6 |
| 20260507010503 | 32 | 36 | 1.0 | 2.0 | 0.00 | 0.00 | 0.00 | 84 | 1013.5 |
| 20260507010003 | 31 | 44 | 1.0 | 2.0 | 0.00 | 0.00 | 0.00 | 86 | 1013.4 |
| 20260507005503 | 31 | 53 | 0.0 | 2.0 | 0.00 | 0.00 | 0.00 | 84 | 1013.5 |
| 20260507005003 | 32 | 28 | 0.0 | 2.0 | 0.00 | 0.00 | 0.00 | 83 | 1013.2 |
| 20260507004503 | 31 | 6 | 1.0 | 3.0 | 0.00 | 0.00 | 0.00 | 85 | 1013.2 |
| 20260507004003 | 32 | 23 | 1.0 | 3.0 | 0.00 | 0.00 | 0.00 | 83 | 1013.4 |
| 20260507003503 | 32 | 39 | 1.0 | 2.0 | 0.00 | 0.00 | 0.00 | 83 | 1013.3 |
| 20260507003212 | 33 | 37 | 1.0 | 3.0 | 0.00 | 0.00 | 0.00 | 83 | 1013.4 |
| 20260507002503 | 33 | 39 | 1.0 | 3.0 | 0.00 | 0.00 | 0.00 | 82 | 1013.3 |
| 20260507002003 | 33 | 33 | 1.0 | 3.0 | 0.00 | 0.00 | 0.00 | 82 | 1013.4 |
| 20260507001503 | 33 | 45 | 1.0 | 3.0 | 0.00 | 0.00 | 0.00 | 82 | 1013.3 |
| 20260507001004 | 33 | 43 | 1.0 | 3.0 | 0.00 | 0.00 | 0.00 | 81 | 1013.2 |
| 20260507000503 | 33 | 41 | 1.0 | 3.0 | 0.00 | 0.00 | 0.00 | 81 | 1013.4 |
| 20260507000003 | 33 | 57 | 1.0 | 2.0 | 0.00 | 0.00 | 0.00 | 79 | 1013.2 |
| 20260506235713 | 34 | 46 | 1.0 | 2.0 | 0.00 | 0.00 | 0.00 | 79 | 1013.2 |
| 20260506235003 | 33 | 20 | 0.0 | 2.0 | 0.00 | 0.00 | 0.00 | 81 | 1013.2 |
| 20260506234503 | 33 | 48 | 1.0 | 3.0 | 0.00 | 0.00 | 0.00 | 84 | 1013.0 |
| 20260506234212 | 34 | 52 | 1.0 | 3.0 | 0.00 | 0.00 | 0.00 | 78 | 1013.0 |
| 20260506233713 | 35 | 56 | 1.0 | 3.0 | 0.00 | 0.00 | 0.00 | 77 | 1013.2 |
| 20260506233003 | 35 | 38 | 0.0 | 1.0 | 0.00 | 0.00 | 0.00 | 79 | 1013.2 |
| 20260506232503 | 35 | 21 | 0.0 | 2.0 | 0.00 | 0.00 | 0.00 | 77 | 1013.1 |
| 20260506232003 | 35 | 21 | 1.0 | 2.0 | 0.00 | 0.00 | 0.00 | 78 | 1012.8 |
| 20260506231503 | 35 | 25 | 1.0 | 2.0 | 0.00 | 0.00 | 0.00 | 77 | 1013.0 |
| 20260506231003 | 34 | 52 | 0.0 | 2.0 | 0.00 | 0.00 | 0.00 | 79 | 1012.9 |
| 20260506230503 | 35 | 60 | 1.0 | 2.0 | 0.00 | 0.00 | 0.00 | 77 | 1012.9 |
| 20260506230003 | 35 | 57 | 0.0 | 2.0 | 0.00 | 0.00 | 0.00 | 74 | 1013.0 |
| 20260506225503 | 35 | 43 | 1.0 | 3.0 | 0.00 | 0.00 | 0.00 | 76 | 1012.7 |
| 20260506225003 | 36 | 37 | 2.0 | 3.0 | 0.00 | 0.00 | 0.00 | 73 | 1012.7 |
| 20260506224503 | 37 | 34 | 1.0 | 3.0 | 0.00 | 0.00 | 0.00 | 72 | 1012.6 |
| 20260506224003 | 37 | 31 | 1.0 | 3.0 | 0.00 | 0.00 | 0.00 | 74 | 1012.6 |
| 20260506223503 | 37 | 25 | 2.0 | 3.0 | 0.00 | 0.00 | 0.00 | 74 | 1012.6 |
| 20260506223003 | 37 | 23 | 1.0 | 3.0 | 0.00 | 0.00 | 0.00 | 73 | 1012.6 |
| 20260506222713 | 37 | 21 | 1.0 | 3.0 | 0.00 | 0.00 | 0.00 | 73 | 1012.4 |
| 20260506222003 | 37 | 220 | 0.0 | 1.0 | 0.00 | 0.00 | 0.00 | 71 | 1012.5 |
| 20260506221504 | 38 | 189 | 0.0 | 2.0 | 0.00 | 0.00 | 0.00 | 70 | 1012.5 |
| 20260506221003 | 38 | 160 | 0.0 | 2.0 | 0.00 | 0.00 | 0.00 | 68 | 1012.4 |
| 20260506220503 | 38 | 49 | 1.0 | 3.0 | 0.00 | 0.00 | 0.00 | 68 | 1012.4 |
| 20260506220004 | 38 | 40 | 1.0 | 3.0 | 0.00 | 0.00 | 0.00 | 67 | 1012.2 |
| 20260506215503 | 39 | 51 | 1.0 | 3.0 | 0.00 | 0.00 | 0.00 | 66 | 1012.3 |
| 20260506215003 | 40 | 38 | 1.0 | 3.0 | 0.00 | 0.00 | 0.00 | 66 | 1012.2 |
| 20260506214503 | 40 | 28 | 2.0 | 3.0 | 0.00 | 0.00 | 0.00 | 66 | 1012.3 |
| 20260506214003 | 40 | 31 | 1.0 | 3.0 | 0.00 | 0.00 | 0.00 | 65 | 1012.3 |
| 20260506213503 | 41 | 47 | 1.0 | 2.0 | 0.00 | 0.00 | 0.00 | 63 | 1012.1 |
| 20260506213003 | 42 | 54 | 1.0 | 2.0 | 0.00 | 0.00 | 0.00 | 62 | 1012.2 |
| 20260506212712 | 42 | 52 | 1.0 | 2.0 | 0.00 | 0.00 | 0.00 | 61 | 1012.3 |
| 20260506212003 | 43 | 53 | 0.0 | 2.0 | 0.00 | 0.00 | 0.00 | 57 | 1012.1 |
| 20260506211503 | 43 | 77 | 0.0 | 2.0 | 0.00 | 0.00 | 0.00 | 54 | 1012.1 |
| 20260506211003 | 44 | 120 | 0.0 | 1.0 | 0.00 | 0.00 | 0.00 | 52 | 1012.0 |
| 20260506210503 | 44 | 142 | 0.0 | 1.0 | 0.00 | 0.00 | 0.00 | 51 | 1011.9 |